Back to catalog

FENGYUN 1C DEB

AlivePO
NORAD 32303·DEBRIS·🇨🇳 China

Launched May 10, 1999 from Taiyuan Satellite Launch Center

Loading…

Next Passes (next 24 hours)

TLE

AgingSource: Space-Track

Epoch: Sep 6, 2026, 03:44 UTC

1 32303U 99025CWU 26249.15610783  .00003270  00000-0  13138-2 0  9990
2 32303  97.8092  19.4481 0087390 236.3629 122.9194 14.26669035660454

Track FENGYUN 1C DEB in real time with AllMySat

Download on the App Store